Welcome to the New NWS' Forecast!
Most changes are behind the scenes, but click here for differences you might notice.

Regional Weather Roundup (RWR)

Issued by Gray - Portland, ME (GYX)

                            
000
ASUS41 KGYX 160105
RWRGYX
WEATHER ROUNDUP FOR MAINE AND NEW HAMPSHIRE
NATIONAL WEATHER SERVICE GRAY ME
800 PM EST THU NOV 15 2018

MEZ002-005-006-010-012-015-018-020-021-024-026-027-029-160200-
MAINE
  
CITY           SKY/WX    TMP DP  RH WIND       PRES   REMARKS
PORTLAND       CLOUDY    29  16  58 CALM      30.42F                  
SANFORD        MOCLDY    27  17  66 N6        30.40F                  
BAR HARBOR     FAIR      26  11  52 CALM      30.45R                  
WISCASSET      FAIR      27  16  63 CALM      30.43F                  
ROCKLAND       FAIR      27  15  61 N3        30.42F                  
FRYEBURG       FAIR      24  12  60 CALM      30.39F                  
LEWISTONAUBURN FAIR      26   9  48 CALM      30.41F                  
AUGUSTA        FAIR      26   6  42 SE3       30.42S                  
WATERVILLE     FAIR      24  13  62 MISG      30.39S                  
BANGOR         CLOUDY    25  10  53 SE5       30.43F                  
GREENVILLE       N/A     17   7  64 SE6       30.30F                  
MILLINOCKET    FAIR      16  12  84 E3        30.40F                  
HOULTON        FAIR      13  11  92 CALM      30.40S                  
PRESQUE ISLE   FAIR       9   6  88 CALM      30.40F                  
FRENCHVILLE    FAIR      19   6  57 CALM      30.34F                  
CARIBOU        FAIR      14   6  70 CALM      30.38F                  
$$

NHZ002-005-008-009-011-012-014-160200-
NEW HAMPSHIRE
  
CITY           SKY/WX    TMP DP  RH WIND       PRES   REMARKS
PORTSMOUTH     CLOUDY    29  17  59 N5        30.37F                  
ROCHESTER      FAIR      27  13  55 N3        30.38F                  
NASHUA         CLOUDY    29  14  53 N5        30.38S                  
MANCHESTER     CLOUDY    29  12  49 NE3       30.35F                  
CONCORD        CLOUDY    27   8  44 NE3       30.37F                  
LACONIA        FAIR      26   6  42 E3        30.37F                  
PLYMOUTH       CLOUDY    25  14  63 CALM      30.37F                  
BERLIN         FAIR      17  14  88 CALM      30.32S                  
WHITEFIELD     FAIR      19  13  77 CALM      30.32F                  
JAFFREY        LGT SNOW  25  14  63 E5        30.31F                  
KEENE          FLURRIES  28  16  60 VRB3      30.33F                  
LEBANON        MOCLDY    26  13  57 CALM      30.34F                  
MT WASHINGTON  MOCLDY    16 -18  20 S14         N/A  WCI   1          
$$

VTZ005-007-008-160200-
VERMONT
  
CITY           SKY/WX    TMP DP  RH WIND       PRES   REMARKS
ST JOHNSBURY     N/A     19  13  77 MISG      30.34S                  
MONTPELIER     FAIR      21  13  71 CALM      30.34F                  
BURLINGTON     CLOUDY    26  12  55 SE7       30.30F                  
$$

MAZ007-012-024-CTZ003-RIZ002-NYZ038-NYZ072-160200-
SOUTHERN NEW ENGLAND AND NY
  
CITY           SKY/WX    TMP DP  RH WIND       PRES   REMARKS
BOSTON         LGT SNOW  36  29  75 E12       30.36F                  
WORCESTER      SNOW      22  20  92 NE6       30.29F VSB 1/2          
NANTUCKET      LGT RAIN  36  32  85 E15       30.30F FOG              
PROVIDENCE     HAIL      30  29  96 NE13      30.31F VSB 1/2 WCI  20  
HARTFORD       SNOW      26  24  92 N10       30.28F VSB 1/2 WCI  16  
ALBANY         LGT SNOW  26  21  81 CALM      30.28F VSB 1            
NEW YORK CITY  FRZ RAIN  35  34  96 NE26G35   30.11F VSB 1            
$$

ANZ081-ANZ082-ANZ150-NHZ014-MEZ023>029-160200-
COASTAL MARINE OBSERVATIONS
  
STATION/POSITION TIME  TEMP    WIND        PRES    WAVE
                       AIR SEA DIR/SP/G            HT/PER
                 (UTC) (F)     (DEG/KT/KT) (MB)    (FT/S)
MOUNT DESERT ROC 0100   33     100/  4/  6 1030.6S
MATINICUS ROCK   0000   32     100/  6/  8 1029.9F
ISLE OF SHOALS   0000   33      90/ 12/ 13 1029.3F
CASHES LEDGE BUO 0050   34 49              1030.0F   2/ 5
$$

.............KEY..............
   WCI - WIND CHILL
   TC  - TEMPERATURE IN CELSIUS
   VSB - VISIBILITY IN MILES
   HX  - HEAT INDEX
   FAIR- INDICATES FEW OR NO CLOUDS BELOW 12,000 FT, WITH NO 
         SIGNIFICANT WEATHER AND/OR OBSTRUCTIONS TO VISIBILITY.